Temp
69 68 67 68 70 70 71 70 70 70 69 70 69 68 68 66 65 63 63 63 63 61 62 61 61 60 58 58 58 57 57 59 56 57 57 59 61 62 63 63 62 62 61
68 69 68 69 69 69 70 70 69 70 69 71 69 68 67 66 64 64 63 64 63 62 62 61 61 61 59 58 57 57 57 58 58 55 56 57 59 63 62 62 62 64 62
70 69 68 68 69 68 68 69 70 69 69 70 70 68 67 66 65 64 65 64 63 63 62 61 61 60 59 58 58 57 57 59 57 56 57 60 59 61 62 62 61 60 61
70 69 68 68 67 67 67 67 68 69 70 69 68 68 69 69 69 69 65 64 63 63 63 63 62 61 60 59 59 58 58 57 57 57 56 59 58 60 61 59 58 59 58
69 68 66 67 67 68 68 67 66 67 68 68 66 66 67 70 70 68 68 63 62 62 63 63 62 62 61 60 60 59 58 57 56 56 56 58 59 59 58 59 57 57 57
68 67 68 69 70 69 68 66 66 66 65 66 66 68 67 68 55 58 62 62 62 61 60 59 59 58 57 55 56 58 59 59 55 55 54 58 58 58 59 58 57 57 54
68 68 69 70 69 67 69 67 63 62 64 64 67 65 63 59 49 52 55 62 61 60 59 59 59 61 58 58 53 54 53 54 57 57 57 57 58 59 59 57 58 54 55
68 69 71 71 69 68 66 64 62 64 65 63 61 59 58 55 47 49 54 61 61 60 60 59 59 58 58 58 58 57 56 58 57 59 59 57 58 60 61 59 57 57 57
70 71 72 71 68 66 64 63 61 62 61 60 60 58 57 54 46 48 56 60 60 60 61 60 60 57 46 48 57 55 55 55 50 49 50 48 48 49 55 60 56 57 54
72 72 71 70 68 65 63 61 61 61 60 62 59 58 54 55 46 47 55 60 59 60 61 59 53 54 45 47 57 56 56 56 57 56 54 50 52 52 51 61 59 57 54
73 72 71 70 67 66 62 61 61 61 61 61 59 57 56 54 51 45 49 60 59 59 59 58 54 45 46 47 51 57 55 56 54 57 57 57 57 57 58 59 62 60 55
73 72 69 68 70 69 63 61 62 61 60 59 58 56 55 54 48 45 46 51 53 57 56 55 52 43 44 48 51 44 46 52 58 56 56 56 56 57 57 58 58 58 56
70 69 69 67 65 64 63 61 60 60 60 59 59 56 54 53 52 44 45 44 48 56 55 51 44 43 43 45 44 45 48 57 56 55 55 55 57 57 58 57 58 60 58
67 67 68 66 62 62 63 63 61 60 59 59 59 57 56 54 52 52 53 52 48 50 48 50 49 48 46 48 50 52 58 58 57 56 55 56 57 57 57 58 57 57 56
68 66 64 63 59 54 51 54 60 59 60 60 59 58 56 55 54 51 52 54 55 52 52 53 54 54 54 55 56 57 57 57 57 56 56 55 56 56 57 59 59 55 55
66 64 63 60 58 56 54 52 42 42 45 47 49 56 59 52 45 44 45 43 43 44 54 54 54 54 54 55 56 56 56 55 57 57 56 56 56 57 57 57 58 56 54
66 63 62 61 59 57 57 56 52 48 41 40 41 45 50 46 43 43 43 41 42 46 55 54 54 55 55 56 56 57 56 57 58 58 57 57 56 57 54 58 58 58 57
67 57 64 63 61 59 59 57 58 57 54 53 43 43 41 41 41 41 42 46 53 53 56 54 55 55 55 56 57 57 57 57 55 57 57 57 57 57 57 57 58 57 57
67 66 65 64 63 60 59 59 58 56 54 52 50 46 41 39 40 41 43 56 56 56 56 56 56 56 56 57 58 58 58 57 57 58 57 57 58 58 58 56 58 47 50
68 58 61 65 62 61 60 59 58 55 54 55 55 52 49 50 53 54 53 57 58 56 56 57 57 57 57 57 57 58 57 56 57 58 57 57 59 58 57 58 58 58 56
67 64 55 66 65 64 65 61 59 56 54 54 55 53 44 56 55 55 52 55 58 59 59 58 58 58 58 59 58 58 57 58 58 59 56 56 58 56 57 59 60 60 59
69 69 70 69 69 66 65 66 61 59 57 55 54 50 37 53 54 55 57 58 59 60 61 61 60 60 59 59 59 59 59 59 59 59 59 60 60 61 60 60 59 58 58
69 70 67 66 70 57 64 66 64 62 59 56 54 52 52 55 57 56 56 55 54 53 53 53 54 52 52 51 53 54 59 60 59 61 61 60 60 60 60 59 59 58 58
63 64 61 62 64 65 65 67 65 56 60 57 55 55 54 53 51 52 51 50 48 48 47 47 46 45 47 46 46 47 46 47 51 56 59 62 61 58 62 62 62 61 61
51 51 53 54 54 57 62 62 61 60 60 57 55 54 53 52 50 48 46 46 45 45 44 43 44 43 42 42 41 42 39 35 46 43 58 60 61 61 60 59 58 59 61
47 47 47 48 48 49 51 52 53 52 50 49 48 47 47 46 46 46 46 44 42 40 40 40 41 41 39 39 37 35 35 36 42 39 53 55 54 53 56 56 56 55 55
MSLP
994.85 995.47 996.19 996.80 997.16 997.90 998.54 998.97 999.69 1000.39 1001.12 1001.91 1002.83 1003.53 1004.33 1005.02 1005.61 1006.06 1006.51 1006.96 1007.44 1007.92 1008.17 1008.53 1008.88 1008.98 1009.30 1009.49 1009.67 1009.84 1010.02 1010.19 1010.48 1010.58 1010.54 1010.41 1010.58 1010.85 1011.16 1011.39 1012.03 1012.42 1012.82
994.07 994.65 995.45 996.06 996.90 997.66 998.20 998.73 999.45 1000.00 1000.98 1001.81 1002.62 1003.42 1004.23 1004.90 1005.49 1005.95 1006.40 1006.72 1007.33 1007.75 1008.03 1008.38 1008.64 1008.82 1009.23 1009.43 1009.64 1009.79 1009.97 1010.09 1010.26 1010.65 1010.68 1010.76 1010.91 1011.15 1011.53 1011.91 1012.53 1012.81 1013.16
993.64 994.33 995.24 995.97 996.73 997.36 997.99 998.61 999.10 999.94 1000.82 1001.59 1002.43 1003.37 1004.07 1004.69 1005.23 1005.62 1005.95 1006.56 1007.05 1007.37 1007.73 1008.05 1008.31 1008.70 1009.04 1009.22 1009.36 1009.72 1009.89 1010.04 1010.14 1010.45 1010.91 1011.00 1011.35 1011.63 1012.02 1012.50 1012.87 1013.44 1013.57
993.47 994.29 995.19 996.04 996.62 997.28 997.96 998.61 999.33 999.96 1000.83 1001.57 1002.45 1003.21 1003.89 1004.26 1004.85 1005.34 1005.92 1006.40 1006.77 1007.13 1007.50 1007.75 1008.07 1008.40 1008.62 1008.88 1009.12 1009.35 1009.74 1010.02 1010.24 1010.59 1011.09 1011.26 1011.54 1012.03 1012.26 1012.81 1013.62 1013.89 1014.23
993.71 994.26 995.37 996.09 996.71 997.17 998.01 998.80 999.62 1000.07 1000.77 1001.60 1002.59 1003.22 1003.67 1003.98 1004.53 1005.15 1005.67 1006.27 1006.73 1007.15 1007.44 1007.64 1007.87 1007.98 1008.18 1008.36 1008.68 1008.98 1009.41 1009.90 1010.24 1010.64 1011.12 1011.43 1011.73 1012.12 1012.48 1013.02 1013.75 1014.35 1014.89
993.80 994.80 995.31 996.09 996.67 997.39 998.34 999.24 999.97 1000.63 1001.31 1001.96 1002.58 1003.11 1003.71 1004.13 1004.63 1005.04 1005.62 1006.23 1006.72 1007.08 1007.43 1007.78 1007.98 1008.06 1008.11 1008.19 1008.42 1008.57 1008.88 1009.48 1010.09 1010.57 1010.97 1011.39 1011.77 1012.15 1012.53 1013.19 1013.85 1014.62 1015.35
993.87 995.01 995.39 996.25 997.02 998.01 998.76 999.72 1000.18 1000.96 1001.54 1002.11 1002.64 1003.26 1004.00 1004.66 1004.92 1005.08 1005.53 1006.01 1006.59 1007.09 1007.41 1007.81 1008.03 1008.21 1008.41 1008.32 1008.54 1008.67 1008.88 1009.14 1009.18 1009.73 1010.51 1011.03 1011.61 1011.97 1012.53 1013.29 1013.83 1014.49 1014.98
994.27 995.06 995.22 996.20 997.35 998.17 999.05 999.91 1000.54 1001.12 1001.74 1002.38 1003.01 1003.74 1004.42 1005.24 1005.41 1005.30 1005.66 1005.98 1006.54 1006.95 1007.29 1007.64 1007.95 1008.32 1008.34 1008.39 1008.67 1009.05 1009.32 1009.65 1009.92 1009.91 1010.09 1010.57 1011.01 1011.80 1012.35 1012.96 1013.81 1014.62 1015.36
994.26 994.81 995.24 996.37 997.55 998.26 999.20 1000.04 1000.67 1001.32 1002.07 1002.81 1003.47 1004.10 1004.71 1005.43 1005.62 1005.67 1005.79 1006.22 1006.68 1007.12 1007.39 1007.67 1007.90 1008.37 1008.59 1008.56 1008.83 1009.35 1009.79 1010.17 1010.29 1010.03 1010.19 1010.64 1011.16 1011.85 1012.33 1012.95 1013.86 1014.44 1015.47
994.09 994.50 995.44 996.52 997.61 998.51 999.24 1000.07 1000.87 1001.44 1002.15 1002.98 1003.65 1004.11 1004.67 1005.29 1005.84 1005.87 1005.88 1006.31 1006.87 1007.24 1007.62 1007.86 1008.05 1008.38 1008.65 1008.73 1008.96 1009.38 1010.03 1010.39 1010.51 1010.84 1011.28 1011.65 1011.56 1012.14 1012.47 1012.49 1013.30 1014.21 1015.07
994.00 994.90 995.69 996.67 997.76 998.62 999.53 1000.22 1000.93 1001.64 1002.44 1003.14 1003.73 1004.46 1004.88 1005.30 1005.96 1006.09 1006.06 1006.36 1006.82 1007.33 1007.76 1008.14 1008.51 1008.63 1008.74 1008.85 1009.05 1009.32 1009.85 1010.37 1010.74 1011.00 1011.51 1011.87 1012.16 1012.55 1012.76 1012.85 1013.06 1013.57 1014.50
994.54 995.30 996.13 996.92 997.85 998.84 999.69 1000.43 1001.00 1001.82 1002.65 1003.32 1004.00 1004.86 1005.31 1005.68 1006.09 1006.26 1006.15 1006.27 1006.74 1007.34 1007.84 1008.36 1008.74 1008.89 1008.99 1009.08 1009.45 1009.72 1010.22 1010.54 1010.94 1011.33 1011.70 1012.00 1012.27 1012.57 1012.88 1013.11 1013.37 1013.76 1014.17
995.18 995.75 996.22 997.15 998.03 999.07 999.92 1000.70 1001.47 1002.05 1002.65 1003.39 1004.11 1004.88 1005.60 1006.10 1006.54 1006.65 1006.52 1006.51 1006.81 1007.42 1007.88 1008.38 1008.75 1009.07 1009.26 1009.43 1009.53 1010.03 1010.37 1010.71 1011.08 1011.54 1011.85 1012.08 1012.25 1012.54 1012.93 1013.35 1013.64 1013.95 1014.37
995.18 995.88 996.57 997.40 998.63 999.49 1000.20 1000.86 1001.58 1002.18 1002.67 1003.31 1004.04 1004.87 1005.57 1006.23 1006.59 1006.91 1007.06 1007.20 1007.37 1007.90 1008.34 1008.81 1009.10 1009.30 1009.39 1009.67 1010.12 1010.27 1010.37 1010.60 1010.98 1011.53 1011.89 1012.21 1012.44 1012.68 1012.91 1013.19 1013.75 1014.10 1014.62
995.43 996.27 997.13 998.01 999.08 1000.29 1001.35 1001.96 1002.01 1002.12 1002.16 1002.92 1003.73 1004.44 1005.18 1005.89 1006.26 1006.49 1006.82 1007.28 1007.64 1008.05 1008.55 1008.98 1009.26 1009.47 1009.70 1009.92 1010.00 1010.13 1010.45 1010.82 1011.14 1011.54 1011.88 1012.13 1012.36 1012.57 1012.92 1013.15 1013.52 1014.11 1014.41
996.04 997.10 997.84 998.54 999.56 1000.56 1001.49 1002.50 1002.76 1002.70 1002.60 1002.87 1003.37 1003.94 1004.80 1005.10 1005.84 1006.51 1006.88 1007.33 1007.78 1008.17 1008.52 1008.84 1009.16 1009.36 1009.57 1009.67 1009.78 1010.08 1010.49 1010.81 1011.05 1011.35 1011.79 1012.12 1012.35 1012.61 1012.89 1013.11 1013.41 1013.89 1014.31
996.04 997.42 998.09 998.77 999.72 1000.41 1000.96 1001.63 1002.83 1003.87 1003.68 1003.86 1004.02 1004.18 1004.62 1005.32 1005.93 1006.46 1006.91 1007.42 1007.92 1008.24 1008.44 1008.73 1008.94 1009.18 1009.34 1009.49 1009.59 1009.90 1010.22 1010.68 1010.88 1011.15 1011.62 1012.05 1012.37 1012.68 1012.89 1013.14 1013.38 1013.74 1014.04
995.87 996.94 997.95 998.85 999.55 1000.06 1000.52 1001.30 1002.07 1002.98 1003.88 1004.75 1005.24 1005.25 1005.46 1005.82 1006.21 1006.75 1007.22 1007.74 1008.32 1008.28 1008.36 1008.58 1008.82 1009.03 1009.15 1009.31 1009.51 1009.69 1010.14 1010.63 1010.99 1011.18 1011.53 1011.88 1012.22 1012.51 1012.81 1012.97 1013.26 1013.51 1013.81
996.12 997.09 997.94 998.75 999.41 999.89 1000.43 1001.26 1002.13 1003.06 1003.90 1004.78 1005.64 1006.09 1006.43 1006.65 1006.86 1007.17 1007.34 1007.49 1007.76 1008.01 1008.18 1008.39 1008.59 1008.85 1009.09 1009.25 1009.35 1009.55 1009.96 1010.59 1010.89 1011.17 1011.52 1011.78 1011.98 1012.25 1012.58 1012.87 1013.03 1013.36 1013.65
996.12 996.86 997.79 998.65 999.45 1000.00 1000.61 1001.40 1002.40 1003.27 1004.04 1004.77 1005.48 1006.25 1006.72 1006.86 1007.28 1007.50 1007.52 1007.54 1007.68 1007.93 1008.04 1008.26 1008.54 1008.74 1008.97 1009.27 1009.52 1009.80 1010.11 1010.59 1010.83 1011.06 1011.43 1011.68 1011.82 1012.10 1012.42 1012.69 1012.91 1013.09 1013.35
996.39 997.07 997.46 998.33 999.02 999.65 1000.34 1001.31 1002.27 1003.19 1003.97 1004.71 1005.28 1006.20 1006.41 1006.80 1007.12 1007.36 1007.48 1007.56 1007.73 1007.99 1008.17 1008.40 1008.60 1008.88 1009.17 1009.44 1009.69 1009.99 1010.27 1010.46 1010.62 1010.85 1011.23 1011.51 1011.69 1011.99 1012.13 1012.23 1012.44 1012.62 1012.82
996.30 996.99 997.42 997.88 998.51 999.46 1000.18 1001.02 1002.08 1003.06 1003.87 1004.75 1005.66 1006.60 1007.22 1007.37 1007.41 1007.60 1007.72 1007.71 1007.69 1007.81 1007.98 1008.28 1008.73 1009.04 1009.24 1009.52 1009.79 1010.12 1010.31 1010.52 1010.65 1010.76 1010.88 1011.05 1011.29 1011.47 1011.58 1011.75 1011.97 1012.16 1012.34
996.05 996.85 997.57 997.88 998.17 999.15 1000.18 1000.95 1001.84 1003.00 1003.92 1004.94 1005.90 1006.91 1007.41 1007.35 1007.60 1007.71 1007.84 1008.08 1008.25 1008.45 1008.67 1008.85 1009.26 1009.67 1009.81 1009.73 1009.84 1010.09 1010.28 1010.40 1010.49 1010.58 1010.65 1010.81 1010.98 1011.09 1011.22 1011.35 1011.48 1011.62 1011.73
997.17 997.78 998.39 998.46 998.55 999.26 1000.06 1001.00 1002.20 1002.91 1003.95 1005.10 1006.19 1007.06 1007.41 1007.55 1007.96 1008.42 1008.76 1009.13 1009.43 1009.76 1010.03 1010.30 1010.61 1010.84 1010.96 1011.00 1010.94 1010.85 1010.90 1010.76 1010.52 1010.24 1010.25 1010.18 1010.29 1010.53 1010.71 1010.87 1011.07 1011.07 1011.16
999.40 999.53 1000.02 1000.11 1000.19 1000.38 1000.85 1001.91 1002.87 1003.80 1004.55 1005.56 1006.53 1007.35 1008.00 1008.41 1008.85 1009.51 1010.05 1010.46 1010.78 1010.99 1011.48 1011.79 1011.91 1012.15 1012.34 1012.26 1012.09 1011.84 1011.48 1010.88 1010.49 1010.32 1009.81 1009.64 1009.89 1010.26 1010.45 1010.55 1010.77 1010.81 1010.72
1001.24 1001.47 1001.73 1002.15 1002.16 1002.42 1002.86 1003.68 1004.31 1005.01 1006.14 1006.90 1007.71 1008.50 1008.98 1009.50 1010.07 1010.58 1010.97 1011.60 1012.03 1012.41 1012.87 1013.13 1013.29 1013.36 1013.35 1013.35 1013.20 1012.93 1012.27 1011.50 1011.06 1010.57 1010.38 1010.45 1010.51 1010.89 1010.91 1011.07 1010.97 1011.09 1011.26
Wind_Speed
13 11 10 10 10 10 10 11 12 12 11 11 10 9 10 8 7 6 6 6 6 5 4 5 5 5 3 2 2 2 2 2 2 1 0 2 3 6 4 5 4 4 3
11 11 11 10 9 10 10 11 12 12 11 11 10 10 10 9 7 7 7 6 6 6 6 6 6 4 4 4 3 3 3 2 3 2 2 2 4 4 4 7 4 3 4
11 11 9 9 10 10 10 11 12 12 11 11 11 11 10 10 8 7 7 7 7 6 6 6 6 6 5 3 4 4 2 1 1 3 2 2 3 3 6 6 5 5 4
11 11 11 10 11 11 11 11 12 11 12 11 10 9 9 9 8 7 6 6 6 7 6 6 6 7 6 6 5 5 3 3 2 4 3 3 3 4 5 6 5 4 4
11 12 10 11 12 13 12 11 10 9 10 10 9 7 7 8 6 7 6 6 6 6 4 4 4 5 7 7 4 5 6 4 3 4 3 3 4 5 6 3 4 5 5
12 12 14 15 15 14 11 10 9 8 8 8 8 9 7 4 6 11 9 7 6 7 6 4 3 3 4 8 7 8 8 7 5 4 3 7 4 3 5 7 7 4 3
14 13 15 15 15 12 12 11 8 8 8 8 9 9 7 6 6 10 11 6 7 6 6 5 4 2 4 4 5 5 5 6 8 7 9 7 8 7 8 8 7 3 3
15 14 15 15 14 12 11 9 8 8 10 9 8 7 7 4 5 8 9 7 6 6 6 6 5 4 3 5 6 6 6 5 3 3 7 7 6 8 10 8 8 7 6
16 16 15 14 12 11 10 9 6 8 7 6 7 8 8 5 5 6 8 6 6 6 5 5 5 5 1 9 8 7 5 3 5 5 9 11 14 13 11 10 8 10 4
16 16 14 13 12 10 10 8 5 7 7 8 7 6 8 7 4 4 6 5 6 5 3 4 6 7 7 10 8 8 7 3 6 7 6 7 9 10 8 8 11 9 5
15 14 14 13 11 11 9 6 7 8 8 7 8 5 6 6 5 2 7 5 5 5 4 3 3 6 6 10 8 6 6 6 7 7 5 5 5 7 4 4 6 9 8
13 14 13 12 10 9 11 6 9 9 9 8 8 5 4 5 5 4 7 7 8 5 5 3 3 4 6 8 5 12 13 9 5 5 4 4 5 5 4 4 4 4 3
14 14 13 11 10 10 11 9 7 8 8 8 7 6 4 3 3 6 8 6 9 5 4 6 8 6 7 6 15 15 10 6 6 5 4 2 3 4 6 4 4 6 4
14 13 13 13 9 7 6 7 8 7 7 7 8 6 5 4 3 3 4 6 10 8 8 5 4 5 7 7 7 6 4 6 7 5 3 3 4 4 5 5 5 3 3
14 12 11 10 10 8 7 4 4 4 8 9 6 7 7 6 4 7 8 5 6 6 8 4 3 2 2 4 3 4 5 5 6 5 5 4 4 4 4 6 5 3 3
14 10 9 9 8 7 7 5 15 9 4 7 12 9 3 6 13 11 10 11 14 13 3 3 3 3 3 4 5 6 5 5 5 6 5 4 4 4 4 3 3 3 3
15 11 8 9 8 8 7 8 8 8 16 15 9 10 10 10 12 11 11 12 13 7 3 3 3 3 3 5 4 6 5 4 6 6 6 5 4 4 4 4 3 3 3
15 15 10 9 9 7 7 7 7 8 6 4 11 7 9 13 14 14 14 10 3 2 3 4 3 4 3 4 5 5 5 5 4 5 5 5 5 5 4 5 4 3 2
13 9 8 7 7 8 8 8 7 7 7 6 4 6 7 10 10 10 5 5 5 4 4 4 3 3 3 3 4 5 6 6 5 5 4 5 5 5 5 3 3 4 3
10 16 11 8 8 8 7 8 7 7 8 8 7 5 5 4 4 4 2 3 3 2 3 4 4 3 4 4 3 3 4 4 4 4 5 4 4 4 4 5 4 4 5
8 9 11 9 9 9 9 8 7 7 7 6 8 7 8 7 7 6 3 2 2 3 3 3 3 3 3 3 4 4 3 3 3 3 4 4 4 4 4 5 5 5 5
10 9 9 9 9 9 8 9 8 8 7 6 5 5 5 1 3 3 2 2 2 3 3 4 4 3 3 3 3 3 4 4 4 3 4 4 5 5 4 4 4 5 5
8 8 4 5 9 10 8 9 9 8 8 7 6 5 3 3 4 3 4 6 6 7 6 7 6 5 5 5 4 2 3 3 2 3 4 4 5 5 4 4 5 4 5
10 8 8 6 7 8 8 10 8 9 11 10 9 5 5 7 8 9 8 8 8 9 9 9 9 10 7 6 5 5 3 2 3 3 4 6 6 5 5 5 5 7 6
11 10 10 9 9 8 10 10 11 11 11 10 10 9 8 9 10 10 9 9 9 10 12 10 8 12 14 14 11 11 8 6 4 4 3 3 3 4 2 3 3 2 2
13 13 11 9 11 10 11 10 11 12 11 10 10 10 10 10 10 10 10 11 11 11 12 10 13 18 16 14 15 15 13 12 10 9 7 7 8 6 5 5 8 4 4
Wind_Direction
190 186 166 172 163 157 162 161 163 154 150 154 153 137 142 144 148 143 157 157 163 165 164 165 185 172 173 188 174 153 167 155 147 336 335 47 87 125 97 80 92 108 103
168 157 160 158 143 150 164 160 156 151 159 153 143 139 147 151 154 158 166 163 162 178 182 180 190 170 190 193 180 197 182 170 130 151 60 66 81 114 117 106 96 95 101
148 147 145 142 146 153 149 149 149 146 143 144 139 147 155 162 163 175 166 162 183 184 185 183 187 179 203 192 183 194 176 164 144 129 117 79 92 105 94 81 97 74 71
144 141 135 139 141 141 136 132 139 144 141 138 146 153 161 154 168 166 167 185 181 177 192 189 178 192 194 199 195 185 169 151 140 107 91 107 94 92 108 114 116 68 72
140 128 126 133 134 125 125 123 125 130 133 141 145 151 156 151 168 159 166 160 153 154 158 152 181 198 202 197 173 185 159 146 137 124 114 120 128 140 139 117 105 90 58
130 134 132 133 126 123 121 123 124 116 128 134 139 141 132 129 160 147 143 143 145 146 144 136 145 141 150 161 207 190 163 156 151 133 134 148 144 112 130 132 131 133 112
133 138 134 134 133 138 134 140 123 128 128 125 125 120 121 124 147 136 142 143 144 146 147 147 150 165 172 140 71 90 161 177 166 147 153 156 156 154 139 143 146 101 111
137 142 137 134 136 136 134 132 127 128 133 128 122 124 119 116 123 133 146 135 134 149 149 154 150 174 159 140 118 95 85 92 111 149 158 151 133 145 155 150 126 103 80
145 143 134 137 139 132 129 135 120 123 118 124 139 133 132 139 109 129 132 132 133 142 151 153 141 126 158 133 121 108 93 81 38 93 118 119 123 120 132 128 138 141 130
151 139 137 137 137 135 134 127 132 129 128 137 130 135 137 133 132 127 140 124 127 127 118 126 116 135 164 147 134 129 119 105 124 97 88 82 118 138 155 157 153 155 133
135 136 141 141 140 137 133 129 128 122 126 128 123 124 122 133 143 127 155 143 143 141 156 130 116 128 136 155 140 136 136 125 102 104 112 119 123 149 146 132 166 159 155
137 142 142 137 141 141 134 127 130 132 129 124 118 107 105 112 103 63 168 147 139 139 153 133 125 147 119 142 140 123 127 116 117 114 121 138 149 153 139 137 133 117 104
138 138 133 129 128 132 133 130 124 130 135 135 138 130 123 111 101 64 68 126 143 113 117 124 128 143 112 99 136 142 137 130 129 135 145 132 138 134 127 109 101 116 86
130 130 129 120 111 109 118 133 137 137 133 139 140 140 141 138 140 130 112 95 86 87 104 101 108 98 74 109 128 152 132 143 145 144 135 123 126 136 147 145 151 140 114
125 122 119 117 110 91 64 58 132 118 149 150 155 154 153 163 191 164 148 136 133 130 120 125 124 117 118 139 147 136 122 134 140 146 146 137 142 140 136 152 159 148 139
126 129 133 126 122 127 132 102 44 40 83 136 143 151 116 125 144 160 148 128 133 148 125 139 152 161 167 163 167 145 142 150 151 145 142 149 150 157 155 138 129 147 152
132 135 127 128 138 144 140 132 117 56 67 59 71 126 137 146 135 154 153 139 148 149 128 149 155 164 165 169 156 158 157 161 155 152 150 160 156 155 159 170 151 155 164
138 138 143 147 149 141 134 126 129 130 123 94 37 66 97 128 128 129 125 115 135 133 140 156 162 157 150 151 155 150 141 147 153 155 153 162 167 172 177 178 181 173 177
142 147 137 140 140 132 123 119 116 115 113 113 111 64 58 77 101 122 124 151 166 169 160 160 155 148 141 145 135 142 148 159 163 166 168 177 178 176 185 189 178 193 172
145 140 139 138 135 127 131 127 129 128 133 140 141 134 141 125 142 158 207 184 143 165 147 149 155 143 145 138 131 129 129 149 161 166 167 175 183 176 179 196 200 201 207
142 148 147 142 148 145 148 145 144 145 143 153 152 160 167 156 163 176 180 170 158 167 156 137 151 138 139 154 157 162 161 173 172 170 170 179 181 188 201 201 203 206 207
147 148 158 168 160 151 152 152 145 148 150 145 137 131 104 357 106 105 141 202 211 185 153 138 130 148 170 152 160 168 184 193 201 199 193 196 201 218 216 208 207 212 219
141 142 131 162 163 143 144 151 155 143 133 113 107 114 163 124 118 96 64 53 53 52 46 54 67 62 39 46 51 56 211 182 177 204 202 201 209 219 221 229 225 227 223
72 80 83 70 114 134 150 154 125 125 120 118 121 121 95 88 82 74 72 70 66 62 58 59 57 58 52 40 32 36 21 334 271 254 260 215 209 206 223 233 233 234 238
58 65 63 62 68 78 98 108 112 116 115 111 103 99 91 86 86 81 74 69 68 68 64 59 55 54 48 45 37 26 2 340 301 270 267 96 144 138 95 86 38 325 318
57 62 62 62 63 67 78 80 92 96 90 90 86 80 83 85 81 80 84 79 77 69 65 54 55 53 47 37 21 11 4 19 30 38 53 54 71 48 58 51 49 48 34